Riverside March, CA

6:14 PM PDT on June 26, 2017 (GMT -0700)
March Air Reserve Base

Weather History for KRIV - May, 2014

Change the Weather History Date:

Tuesday, May 20, 2014

  Actual Average Record
Temperature  
Mean Temperature 62 °F -  
Max Temperature 71 °F 78 °F 96 °F (2000)
Min Temperature 54 °F 52 °F 44 °F (2011)
Degree Days  
Heating Degree Days 2    
Growing Degree Days 12 (Base 50)    
Moisture  
Dew Point 44 °F    
Average Humidity 57    
Maximum Humidity 82    
Minimum Humidity 30    
Precipitation  
Precipitation 0.00 in - - ()
Sea Level Pressure  
Sea Level Pressure 29.94 in    
Wind  
Wind Speed 10 mph (South)    
Max Wind Speed 16 mph    
Max Gust Speed 20 mph    
Visibility 10 miles    
Events      
Averages and records for this station are not official NWS values.
T = Trace of Precipitation, MM = Missing Value Source: NWS Daily Summary

Daily Weather History Graph

Daily Weather History Graph

Search for Another Location

Airport or City:

Trip Planner

Search our weather history database for the weather conditions in past years. The results will help you decide how hot, cold, wet, or windy it might be!

Date:

Astronomy

May. 20, 2014 Rise Set
Actual Time 5:44 AM PDT 7:47 PM PDT
Civil Twilight 5:16 AM PDT 8:15 PM PDT
Nautical Twilight 4:42 AM PDT 8:49 PM PDT
Astronomical Twilight 4:06 AM PDT 9:25 PM PDT
Moon 12:26 AM PDT (5/20) 11:49 AM PDT (5/20)
Length of Visible Light 14h 58m
Length of Day
14h 02m
Waning Gibbous, 59% of the Moon is Illuminated
May 20
Waning Gibbous
May 21
Last Quarter
May 28
New
Jun 5
First Quarter
Jun 12
Full

Hourly Weather History & Observations

Time (PDT) Temp. Dew Point Humidity Pressure Visibility Wind Dir Wind Speed Gust Speed Precip Events Conditions
12:58 AM 58.3 °F 49.5 °F 72% 29.92 in 10.0 mi SSE 8.1 mph - N/A   Overcast
1:58 AM 57.9 °F 50.4 °F 76% 29.91 in 10.0 mi SSE 9.2 mph - N/A   Scattered Clouds
2:58 AM 57.6 °F 50.9 °F 78% 29.92 in 10.0 mi SSE 10.4 mph - N/A   Mostly Cloudy
3:58 AM 56.3 °F 50.2 °F 80% 29.92 in 10.0 mi SSE 8.1 mph - N/A   Mostly Cloudy
4:58 AM 55.0 °F 49.5 °F 81% 29.93 in 10.0 mi SSE 8.1 mph - N/A   Scattered Clouds
5:58 AM 54.0 °F 48.7 °F 82% 29.94 in 10.0 mi SSE 8.1 mph - N/A   Scattered Clouds
6:58 AM 55.6 °F 48.0 °F 76% 29.95 in 10.0 mi South 13.8 mph - N/A   Clear
7:58 AM 58.3 °F 44.2 °F 60% 29.96 in 10.0 mi South 15.0 mph 19.6 mph N/A   Scattered Clouds
8:58 AM 59.4 °F 44.6 °F 58% 29.99 in 10.0 mi SSE 15.0 mph - N/A   Partly Cloudy
9:58 AM 63.0 °F 44.4 °F 51% 29.98 in 10.0 mi South 12.7 mph - N/A   Mostly Cloudy
10:58 AM 63.1 °F 43.5 °F 49% 29.98 in 10.0 mi SE 9.2 mph - N/A   Mostly Cloudy
11:58 AM 66.6 °F 42.4 °F 42% 29.96 in 10.0 mi ENE 8.1 mph - N/A   Scattered Clouds
12:58 PM 67.3 °F 41.2 °F 39% 29.95 in 10.0 mi SSE 3.5 mph - N/A   Mostly Cloudy
1:58 PM 71.1 °F 40.8 °F 33% 29.93 in 10.0 mi SW 4.6 mph - N/A   Scattered Clouds
2:55 PM 69.3 °F 41.7 °F 37% 29.91 in 10.0 mi NW 15.0 mph - N/A   Mostly Cloudy
3:55 PM 69.3 °F 40.5 °F 35% 29.91 in 10.0 mi West 11.5 mph 19.6 mph N/A   Mostly Cloudy
4:49 PM 69.8 °F 37.4 °F 31% 29.92 in 10.0 mi West 13.8 mph - N/A   Clear
4:58 PM 69.1 °F 36.5 °F 30% 29.90 in 10.0 mi West 16.1 mph - N/A   Clear
5:58 PM 67.3 °F 39.7 °F 36% 29.91 in 10.0 mi WNW 15.0 mph - N/A   Clear
6:58 PM 63.1 °F 42.3 °F 46% 29.93 in 10.0 mi WNW 16.1 mph - N/A   Clear
7:58 PM 59.4 °F 43.3 °F 55% 29.94 in 10.0 mi West 10.4 mph 19.6 mph N/A   Clear
8:58 PM 57.4 °F 45.9 °F 65% 29.95 in 10.0 mi WNW 10.4 mph - N/A   Clear
9:58 PM 56.1 °F 45.9 °F 68% 29.97 in 10.0 mi NW 2.3 mph - N/A   Clear
10:58 PM 54.9 °F 45.0 °F 69% 29.97 in 10.0 mi East 1.2 mph - N/A   Clear
11:58 PM 54.0 °F 45.5 °F 73% 29.97 in 10.0 mi ESE 5.8 mph - N/A   Clear